�������l�o���
Date,Time,MP-1(��Sv/h),MP-2(��Sv/h),MP-3(��Sv/h),MP-4(��Sv/h),MP-5(��Sv/h),MP-6(��Sv/h),MP-7(��Sv/h),MP-8(��Sv/h),����,����(m/s),���J
2024/04/24,00:00,0.504,0.757,0.474,0.946,0.675,0.310,0.546,0.515,�k��,0.9,�L
2024/04/24,00:10,0.501,0.757,0.475,0.947,0.677,0.310,0.548,0.516,�k��,0.8,�L
2024/04/24,00:20,0.502,0.755,0.473,0.948,0.674,0.312,0.546,0.516,�k��,1.2,�L
2024/04/24,00:30,0.501,0.757,0.474,0.945,0.676,0.310,0.546,0.514,���k��,0.9,��
2024/04/24,00:40,0.501,0.757,0.473,0.947,0.675,0.311,0.547,0.517,-,CALM,�L
2024/04/24,00:50,0.501,0.756,0.475,0.947,0.677,0.312,0.547,0.516,���쐼,0.9,�L
2024/04/24,01:00,0.501,0.756,0.474,0.947,0.677,0.311,0.546,0.515,��,0.9,�L
2024/04/24,01:10,0.501,0.754,0.476,0.946,0.674,0.311,0.547,0.515,�k��,0.6,�L
2024/04/24,01:20,0.500,0.756,0.474,0.948,0.675,0.310,0.549,0.514,-,CALM,�L
2024/04/24,01:30,0.500,0.755,0.474,0.948,0.676,0.311,0.547,0.516,���k��,0.9,��
2024/04/24,01:40,0.502,0.755,0.472,0.948,0.675,0.311,0.548,0.517,���k��,1.1,��
2024/04/24,01:50,0.502,0.757,0.473,0.947,0.675,0.311,0.547,0.516,��,0.6,��
2024/04/24,02:00,0.500,0.756,0.475,0.946,0.676,0.311,0.547,0.517,��,1.2,��
2024/04/24,02:10,0.500,0.756,0.476,0.949,0.674,0.309,0.548,0.515,���k��,0.9,��
2024/04/24,02:20,0.500,0.755,0.474,0.947,0.676,0.310,0.549,0.515,��,0.6,��
2024/04/24,02:30,0.500,0.755,0.474,0.949,0.678,0.309,0.548,0.516,���k��,0.6,��
2024/04/24,02:40,0.503,0.756,0.474,0.948,0.677,0.310,0.548,0.515,��,0.6,�L
2024/04/24,02:50,0.501,0.755,0.474,0.950,0.676,0.310,0.548,0.515,�쐼,0.9,�L
2024/04/24,03:00,0.500,0.755,0.474,0.946,0.676,0.310,0.546,0.516,-,CALM,��
2024/04/24,03:10,0.500,0.756,0.476,0.948,0.678,0.311,0.549,0.515,�쓌,0.8,��
2024/04/24,03:20,0.499,0.756,0.476,0.946,0.675,0.311,0.549,0.516,-,CALM,��
2024/04/24,03:30,0.500,0.757,0.475,0.947,0.676,0.312,0.548,0.516,-,CALM,��
2024/04/24,03:40,0.501,0.756,0.475,0.947,0.677,0.311,0.548,0.515,-,CALM,��
2024/04/24,03:50,0.501,0.755,0.474,0.948,0.676,0.313,0.547,0.515,-,CALM,��
2024/04/24,04:00,0.502,0.755,0.475,0.950,0.676,0.310,0.547,0.515,�쐼,1.2,��
2024/04/24,04:10,0.500,0.757,0.476,0.947,0.675,0.310,0.548,0.515,��쐼,0.9,�L
2024/04/24,04:20,0.501,0.754,0.473,0.950,0.675,0.310,0.548,0.515,���쓌,1.5,�L
2024/04/24,04:30,0.501,0.755,0.473,0.949,0.675,0.311,0.548,0.516,�쓌,2.0,�L
2024/04/24,04:40,0.499,0.755,0.474,0.946,0.675,0.311,0.546,0.516,��쓌,2.9,�L
2024/04/24,04:50,0.502,0.755,0.475,0.946,0.675,0.308,0.544,0.515,��쓌,2.6,�L
2024/04/24,05:00,0.501,0.752,0.475,0.944,0.672,0.309,0.544,0.513,��쓌,2.8,�L
2024/04/24,05:10,0.500,0.755,0.473,0.949,0.671,0.310,0.545,0.514,��쓌,4.0,�L
2024/04/24,05:20,0.500,0.755,0.473,0.945,0.671,0.309,0.543,0.515,��,3.6,�L
2024/04/24,05:30,0.500,0.753,0.475,0.947,0.671,0.310,0.544,0.514,��,2.8,�L
2024/04/24,05:40,0.500,0.752,0.474,0.945,0.670,0.309,0.545,0.516,��,1.4,�L
2024/04/24,05:50,0.500,0.751,0.474,0.944,0.669,0.309,0.545,0.515,��,2.6,�L
2024/04/24,06:00,0.501,0.755,0.474,0.945,0.668,0.310,0.544,0.514,��쐼,4.2,�L
2024/04/24,06:10,0.498,0.753,0.473,0.942,0.670,0.309,0.545,0.514,��쐼,3.3,�L
2024/04/24,06:20,0.500,0.753,0.472,0.945,0.672,0.309,0.546,0.514,��쐼,3.5,��
2024/04/24,06:30,0.499,0.754,0.473,0.942,0.672,0.309,0.545,0.514,��,3.6,�L
2024/04/24,06:40,0.500,0.753,0.475,0.943,0.670,0.310,0.547,0.516,��,3.2,�L
2024/04/24,06:50,0.499,0.755,0.473,0.944,0.673,0.309,0.547,0.514,��,3.0,��
2024/04/24,07:00,0.501,0.756,0.474,0.947,0.672,0.312,0.546,0.515,��쓌,2.9,��
2024/04/24,07:10,0.499,0.754,0.474,0.943,0.671,0.310,0.545,0.514,��쓌,2.3,��
2024/04/24,07:20,0.501,0.754,0.474,0.944,0.672,0.309,0.546,0.517,��,2.8,��
2024/04/24,07:30,0.501,0.756,0.474,0.944,0.673,0.310,0.546,0.513,��쓌,3.4,��
2024/04/24,07:40,0.500,0.754,0.474,0.945,0.673,0.309,0.546,0.514,�쓌,4.3,��
2024/04/24,07:50,0.501,0.755,0.473,0.943,0.673,0.308,0.545,0.513,�쓌,5.0,��
2024/04/24,08:00,0.501,0.755,0.473,0.945,0.672,0.309,0.544,0.515,�쓌,5.1,��
2024/04/24,08:10,0.501,0.755,0.474,0.945,0.672,0.309,0.546,0.511,�쓌,5.7,�L
2024/04/24,08:20,0.499,0.753,0.474,0.944,0.670,0.310,0.545,0.513,�쓌,7.2,�L
2024/04/24,08:30,0.500,0.751,0.475,0.945,0.671,0.308,0.546,0.512,�쓌,5.1,��
2024/04/24,08:40,0.499,0.751,0.474,0.946,0.670,0.308,0.546,0.512,�쓌,6.7,��
2024/04/24,08:50,0.501,0.752,0.474,0.944,0.668,0.308,0.545,0.513,��쓌,6.9,��
2024/04/24,09:00,0.500,0.751,0.476,0.946,0.670,0.310,0.545,0.512,�쓌,6.4,��
2024/04/24,09:10,0.501,0.751,0.476,0.944,0.672,0.309,0.546,0.514,��쓌,4.9,��
2024/04/24,09:20,0.501,0.755,0.474,0.944,0.671,0.308,0.547,0.514,�쓌,5.5,��
2024/04/24,09:30,0.500,0.755,0.475,0.945,0.672,0.307,0.546,0.513,�쓌,6.4,��
2024/04/24,09:40,0.500,0.753,0.475,0.946,0.674,0.307,0.546,0.514,�쓌,5.7,��
2024/04/24,09:50,0.500,0.754,0.474,0.945,0.673,0.308,0.547,0.513,�쓌,6.1,��
2024/04/24,10:00,0.501,0.754,0.475,0.944,0.672,0.309,0.547,0.513,�쓌,5.2,��
2024/04/24,10:10,0.502,0.754,0.474,0.947,0.673,0.309,0.546,0.514,�쓌,5.2,�L
2024/04/24,10:20,0.501,0.754,0.475,0.948,0.675,0.309,0.548,0.512,�쓌,4.6,�L
2024/04/24,10:30,0.502,0.754,0.477,0.946,0.672,0.310,0.546,0.514,�쓌,4.6,�L
2024/04/24,10:40,0.502,0.754,0.476,0.946,0.672,0.310,0.548,0.513,�쓌,5.7,�L
2024/04/24,10:50,0.503,0.756,0.477,0.948,0.672,0.310,0.548,0.514,-,CALM,�L
2024/04/24,11:00,0.503,0.757,0.477,0.945,0.674,0.310,0.548,0.513,��쓌,6.5,�L
2024/04/24,11:10,0.503,0.757,0.479,0.948,0.676,0.309,0.549,0.515,��쓌,7.5,�L
2024/04/24,11:20,0.504,0.759,0.478,0.948,0.675,0.311,0.547,0.515,��쓌,8.2,�L
2024/04/24,11:30,0.504,0.756,0.478,0.949,0.675,0.312,0.549,0.516,��쓌,7.4,�L
2024/04/24,11:40,0.504,0.757,0.480,0.948,0.677,0.311,0.548,0.514,��쓌,7.8,�L
2024/04/24,11:50,0.504,0.759,0.479,0.947,0.673,0.311,0.547,0.515,��쓌,7.6,�L
2024/04/24,12:00,0.504,0.757,0.479,0.949,0.675,0.310,0.547,0.515,��쓌,8.5,�L
2024/04/24,12:10,0.503,0.758,0.480,0.948,0.674,0.312,0.549,0.514,��쓌,8.1,�L
2024/04/24,12:20,0.504,0.758,0.478,0.947,0.676,0.311,0.548,0.515,��쓌,7.0,�L
2024/04/24,12:30,0.503,0.760,0.479,0.946,0.676,0.312,0.548,0.515,��쓌,7.4,�L
2024/04/24,12:40,0.504,0.759,0.478,0.945,0.676,0.311,0.548,0.513,��쓌,7.8,�L
2024/04/24,12:50,0.504,0.760,0.477,0.947,0.675,0.311,0.547,0.515,��쓌,6.8,�L
2024/04/24,13:00,0.502,0.757,0.478,0.949,0.673,0.310,0.548,0.515,��쓌,6.9,�L
2024/04/24,13:10,0.501,0.754,0.478,0.947,0.672,0.312,0.547,0.514,��쓌,7.1,�L
2024/04/24,13:20,0.501,0.753,0.478,0.946,0.674,0.311,0.548,0.514,��쓌,8.4,�L
2024/04/24,13:30,0.504,0.752,0.477,0.946,0.673,0.311,0.548,0.515,��쓌,7.0,�L
2024/04/24,13:40,0.501,0.752,0.476,0.949,0.674,0.312,0.548,0.513,��쓌,7.5,�L
2024/04/24,13:50,0.503,0.751,0.476,0.946,0.673,0.311,0.548,0.513,��쓌,6.1,�L
2024/04/24,14:00,0.502,0.754,0.476,0.949,0.672,0.312,0.548,0.513,��쓌,6.6,�L
2024/04/24,14:10,0.503,0.753,0.478,0.947,0.673,0.310,0.547,0.512,��쓌,6.5,�L
2024/04/24,14:20,0.501,0.754,0.476,0.948,0.671,0.312,0.547,0.513,��쓌,8.2,�L
2024/04/24,14:30,0.502,0.753,0.475,0.947,0.671,0.309,0.545,0.512,-,-,�L
2024/04/24,14:40,0.499,0.752,0.477,0.947,0.671,0.309,0.548,0.512,-,-,-
2024/04/24,14:50,0.499,0.751,0.474,0.944,0.670,0.309,0.546,0.512,-,CALM,�L
2024/04/24,15:00,0.500,0.750,0.473,0.945,0.667,0.310,0.548,0.511,��쓌,9.0,�L
2024/04/24,15:10,0.500,0.751,0.475,0.945,0.670,0.310,0.546,0.511,��,7.5,�L
2024/04/24,15:20,0.497,0.753,0.475,0.945,0.667,0.309,0.546,0.512,��,7.1,�L
2024/04/24,15:30,0.499,0.752,0.474,0.943,0.669,0.310,0.545,0.512,��쓌,6.0,�L
2024/04/24,15:40,0.497,0.751,0.474,0.947,0.668,0.310,0.547,0.512,��쓌,6.9,�L
2024/04/24,15:50,0.499,0.751,0.475,0.946,0.669,0.310,0.546,0.513,��쓌,6.1,�L
2024/04/24,16:00,0.499,0.752,0.474,0.946,0.668,0.310,0.546,0.513,��,5.9,�L
2024/04/24,16:10,0.499,0.754,0.476,0.945,0.670,0.311,0.546,0.513,��,5.5,�L
2024/04/24,16:20,0.498,0.754,0.475,0.947,0.670,0.310,0.548,0.513,��,5.8,�L
2024/04/24,16:30,0.499,0.752,0.474,0.944,0.668,0.309,0.546,0.513,��,7.0,�L
2024/04/24,16:40,0.499,0.751,0.476,0.946,0.668,0.309,0.547,0.514,��쓌,7.0,�L
2024/04/24,16:50,0.499,0.753,0.475,0.946,0.670,0.310,0.548,0.514,��쓌,7.0,�L
2024/04/24,17:00,0.500,0.751,0.474,0.945,0.670,0.311,0.547,0.513,��쓌,6.9,��
2024/04/24,17:10,0.498,0.751,0.475,0.946,0.669,0.311,0.546,0.512,��,8.6,�L
2024/04/24,17:20,0.499,0.752,0.474,0.944,0.670,0.312,0.546,0.513,��,8.7,��
2024/04/24,17:30,0.500,0.753,0.475,0.946,0.667,0.310,0.547,0.514,��,7.3,�L
2024/04/24,17:40,0.499,0.750,0.474,0.945,0.670,0.311,0.547,0.513,��,6.9,�L
2024/04/24,17:50,0.500,0.752,0.474,0.945,0.670,0.311,0.546,0.514,��쓌,6.3,�L
2024/04/24,18:00,0.500,0.753,0.475,0.945,0.670,0.311,0.547,0.515,��,5.2,�L
2024/04/24,18:10,0.500,0.752,0.476,0.945,0.669,0.310,0.547,0.515,��,5.9,�L
2024/04/24,18:20,0.501,0.753,0.473,0.945,0.670,0.311,0.548,0.516,��,5.6,�L
2024/04/24,18:30,0.500,0.752,0.475,0.947,0.670,0.311,0.547,0.513,��,7.1,��
2024/04/24,18:40,0.501,0.751,0.475,0.946,0.671,0.312,0.548,0.513,��,7.3,�L
2024/04/24,18:50,0.501,0.752,0.474,0.944,0.669,0.313,0.548,0.515,��,7.9,�L
2024/04/24,19:00,0.500,0.749,0.473,0.945,0.671,0.310,0.548,0.512,��,8.2,�L
2024/04/24,19:10,0.500,0.751,0.472,0.944,0.670,0.310,0.546,0.515,��,7.7,�L
2024/04/24,19:20,0.499,0.750,0.474,0.944,0.669,0.310,0.548,0.514,��쓌,6.2,�L
2024/04/24,19:30,0.500,0.753,0.474,0.943,0.670,0.310,0.547,0.515,��,6.9,�L
2024/04/24,19:40,0.499,0.750,0.474,0.943,0.670,0.309,0.548,0.514,��,6.1,�L
2024/04/24,19:50,0.500,0.751,0.473,0.944,0.669,0.309,0.548,0.513,��,4.9,�L
2024/04/24,20:00,0.498,0.752,0.473,0.945,0.670,0.310,0.548,0.515,��,5.3,�L
2024/04/24,20:10,0.499,0.749,0.472,0.944,0.668,0.311,0.547,0.514,��,5.2,�L
2024/04/24,20:20,0.499,0.750,0.474,0.944,0.667,0.310,0.545,0.514,��,5.5,�L
2024/04/24,20:30,0.499,0.750,0.473,0.945,0.668,0.310,0.547,0.512,��,5.8,�L
2024/04/24,20:40,0.497,0.749,0.472,0.944,0.668,0.309,0.547,0.512,��,5.3,�L
2024/04/24,20:50,0.496,0.747,0.472,0.943,0.666,0.311,0.545,0.513,��,5.5,�L
2024/04/24,21:00,0.497,0.748,0.472,0.943,0.667,0.310,0.546,0.512,��,5.8,�L
2024/04/24,21:10,0.498,0.748,0.472,0.945,0.667,0.310,0.545,0.512,��,5.6,�L
2024/04/24,21:20,0.496,0.747,0.472,0.943,0.666,0.311,0.547,0.512,��,6.0,�L
2024/04/24,21:30,0.497,0.747,0.471,0.941,0.669,0.310,0.545,0.513,��,6.4,�L
2024/04/24,21:40,0.495,0.745,0.472,0.941,0.667,0.310,0.546,0.511,��,7.0,�L
2024/04/24,21:50,0.494,0.747,0.470,0.941,0.666,0.310,0.545,0.512,��,7.6,�L
2024/04/24,22:00,0.494,0.748,0.473,0.939,0.666,0.311,0.544,0.512,��,8.3,�L
2024/04/24,22:10,0.495,0.747,0.472,0.941,0.664,0.311,0.545,0.513,��쓌,9.4,�L
2024/04/24,22:20,0.495,0.746,0.472,0.941,0.665,0.311,0.546,0.511,��,10.5,�L
2024/04/24,22:30,0.495,0.746,0.472,0.942,0.664,0.310,0.546,0.512,��쓌,8.2,�L
2024/04/24,22:40,0.494,0.745,0.473,0.939,0.663,0.311,0.545,0.512,��쓌,9.0,�L
2024/04/24,22:50,0.494,0.746,0.472,0.938,0.663,0.310,0.545,0.512,��쓌,7.8,�L
2024/04/24,23:00,0.494,0.745,0.472,0.939,0.661,0.310,0.546,0.511,��쓌,9.1,�L
2024/04/24,23:10,0.495,0.744,0.472,0.941,0.662,0.311,0.545,0.511,��쓌,9.7,�L
2024/04/24,23:20,0.494,0.741,0.472,0.939,0.663,0.310,0.545,0.511,��쓌,8.3,�L
2024/04/24,23:30,0.493,0.741,0.471,0.938,0.661,0.311,0.545,0.510,��쓌,8.9,�L
2024/04/24,23:40,0.494,0.741,0.472,0.939,0.660,0.310,0.544,0.510,��쓌,9.2,�L
2024/04/24,23:50,0.494,0.742,0.472,0.940,0.661,0.311,0.544,0.511,��쓌,8.2,�L
